TimeMDT,TemperatureF,Dew PointF,Humidity,Sea Level PressureIn,VisibilityMPH,Wind Direction,Wind SpeedMPH,Gust SpeedMPH,PrecipitationIn,Events,Conditions,WindDirDegrees,DateUTC
12:15 AM,50.0,23.0,35,30.32,10.0,NE,5.8,-,N/A,,Clear,40,2012-09-22 06:15:00
12:35 AM,53.6,24.8,33,30.32,10.0,ENE,8.1,-,N/A,,Clear,70,2012-09-22 06:35:00
12:55 AM,48.2,21.2,34,30.33,10.0,NE,6.9,-,N/A,,Clear,40,2012-09-22 06:55:00
1:15 AM,48.2,21.2,34,30.33,10.0,NE,5.8,-,N/A,,Clear,50,2012-09-22 07:15:00
1:35 AM,50.0,23.0,35,30.33,10.0,NE,5.8,-,N/A,,Clear,50,2012-09-22 07:35:00
1:55 AM,48.2,23.0,37,30.34,10.0,Calm,Calm,-,N/A,,Clear,0,2012-09-22 07:55:00
2:15 AM,42.8,21.2,42,30.34,10.0,North,4.6,-,N/A,,Clear,350,2012-09-22 08:15:00
2:35 AM,44.6,21.2,39,30.35,10.0,North,5.8,-,N/A,,Clear,360,2012-09-22 08:35:00
2:55 AM,44.6,23.0,43,30.35,10.0,North,5.8,-,N/A,,Clear,360,2012-09-22 08:55:00
3:15 AM,42.8,21.2,42,30.35,10.0,North,8.1,-,N/A,,Clear,10,2012-09-22 09:15:00
3:35 AM,42.8,21.2,42,30.35,10.0,North,9.2,-,N/A,,Clear,10,2012-09-22 09:35:00
3:55 AM,42.8,21.2,42,30.35,10.0,North,8.1,-,N/A,,Clear,10,2012-09-22 09:55:00
4:15 AM,42.8,21.2,42,30.36,10.0,North,6.9,-,N/A,,Clear,10,2012-09-22 10:15:00
4:35 AM,42.8,21.2,42,30.36,10.0,North,5.8,-,N/A,,Clear,10,2012-09-22 10:35:00
4:55 AM,44.6,23.0,43,30.36,10.0,North,5.8,-,N/A,,Clear,360,2012-09-22 10:55:00
5:15 AM,42.8,21.2,42,30.37,10.0,North,5.8,-,N/A,,Clear,360,2012-09-22 11:15:00
5:35 AM,41.0,21.2,45,30.37,10.0,North,6.9,-,N/A,,Clear,360,2012-09-22 11:35:00
5:55 AM,39.2,21.2,49,30.38,10.0,North,6.9,-,N/A,,Clear,10,2012-09-22 11:55:00
6:15 AM,39.2,21.2,49,30.38,10.0,NNE,8.1,-,N/A,,Clear,20,2012-09-22 12:15:00
6:35 AM,39.2,21.2,49,30.39,10.0,North,8.1,-,N/A,,Clear,10,2012-09-22 12:35:00
6:55 AM,39.2,21.2,49,30.39,10.0,North,8.1,-,N/A,,Clear,10,2012-09-22 12:55:00
7:15 AM,39.2,21.2,49,30.39,10.0,North,8.1,-,N/A,,Clear,10,2012-09-22 13:15:00
7:35 AM,42.8,24.8,49,30.40,10.0,North,5.8,-,N/A,,Clear,360,2012-09-22 13:35:00
7:55 AM,46.4,24.8,43,30.40,10.0,North,8.1,-,N/A,,Clear,360,2012-09-22 13:55:00
8:15 AM,48.2,24.8,40,30.41,10.0,North,5.8,-,N/A,,Clear,360,2012-09-22 14:15:00
8:55 AM,55.4,26.6,33,30.41,10.0,NNW,4.6,-,N/A,,Clear,340,2012-09-22 14:55:00
9:15 AM,59.0,28.4,31,30.41,10.0,NNW,3.5,-,N/A,,Clear,340,2012-09-22 15:15:00
9:35 AM,62.6,28.4,27,30.41,10.0,North,4.6,-,N/A,,Clear,350,2012-09-22 15:35:00
9:55 AM,64.4,30.2,28,30.42,10.0,North,4.6,-,N/A,,Clear,350,2012-09-22 15:55:00
10:15 AM,66.2,30.2,26,30.41,10.0,North,3.5,-,N/A,,Clear,350,2012-09-22 16:15:00
10:35 AM,69.8,30.2,23,30.41,10.0,NNW,3.5,-,N/A,,Clear,330,2012-09-22 16:35:00
10:55 AM,71.6,32.0,23,30.41,10.0,North,3.5,-,N/A,,Clear,350,2012-09-22 16:55:00
11:15 AM,73.4,33.8,23,30.41,10.0,West,5.8,-,N/A,,Clear,260,2012-09-22 17:15:00
11:35 AM,73.4,30.2,20,30.40,10.0,Calm,Calm,-,N/A,,Clear,0,2012-09-22 17:35:00
12:15 PM,77.0,28.4,17,30.39,10.0,West,9.2,-,N/A,,Clear,270,2012-09-22 18:15:00
12:35 PM,78.8,26.6,15,30.39,10.0,SSW,11.5,17.3,N/A,,Clear,210,2012-09-22 18:35:00
12:55 PM,77.0,26.6,16,30.38,10.0,SW,10.4,-,N/A,,Clear,220,2012-09-22 18:55:00
1:15 PM,78.8,26.6,15,30.37,10.0,WSW,9.2,19.6,N/A,,Clear,240,2012-09-22 19:15:00
1:35 PM,78.8,26.6,15,30.36,10.0,West,16.1,21.9,N/A,,Clear,270,2012-09-22 19:35:00
2:15 PM,80.6,24.8,13,30.35,10.0,Calm,Calm,-,N/A,,Clear,0,2012-09-22 20:15:00
2:35 PM,80.6,24.8,13,30.35,10.0,SW,16.1,23.0,N/A,,Clear,220,2012-09-22 20:35:00
2:55 PM,80.6,24.8,13,30.34,10.0,SW,18.4,21.9,N/A,,Clear,230,2012-09-22 20:55:00
3:15 PM,80.6,24.8,13,30.33,10.0,West,8.1,16.1,N/A,,Clear,280,2012-09-22 21:15:00
3:35 PM,80.6,24.8,13,30.33,10.0,SSW,11.5,26.5,N/A,,Clear,210,2012-09-22 21:35:00
3:55 PM,78.8,24.8,14,30.32,10.0,SW,15.0,24.2,N/A,,Clear,230,2012-09-22 21:55:00
4:15 PM,80.6,24.8,13,30.32,10.0,SSW,15.0,20.7,N/A,,Clear,210,2012-09-22 22:15:00
4:35 PM,78.8,24.8,14,30.32,10.0,WSW,11.5,21.9,N/A,,Clear,240,2012-09-22 22:35:00
4:55 PM,78.8,24.8,14,30.32,10.0,SW,8.1,18.4,N/A,,Clear,220,2012-09-22 22:55:00
5:15 PM,78.8,24.8,14,30.31,10.0,WSW,12.7,21.9,N/A,,Clear,240,2012-09-22 23:15:00
5:35 PM,78.8,23.0,13,30.31,10.0,SW,12.7,-,N/A,,Clear,220,2012-09-22 23:35:00
5:55 PM,77.0,23.0,13,30.31,10.0,SW,11.5,-,N/A,,Clear,220,2012-09-22 23:55:00
6:15 PM,75.2,23.0,14,30.31,10.0,SW,11.5,-,N/A,,Clear,220,2012-09-23 00:15:00
6:35 PM,73.4,23.0,15,30.31,10.0,SW,9.2,-,N/A,,Clear,230,2012-09-23 00:35:00
6:55 PM,71.6,21.2,15,30.31,10.0,SW,9.2,-,N/A,,Clear,230,2012-09-23 00:55:00
7:15 PM,69.8,21.2,16,30.31,10.0,SW,10.4,-,N/A,,Clear,220,2012-09-23 01:15:00
7:35 PM,66.2,19.4,17,30.31,10.0,SW,9.2,-,N/A,,Clear,220,2012-09-23 01:35:00
7:55 PM,64.4,19.4,18,30.32,10.0,SW,8.1,-,N/A,,Clear,230,2012-09-23 01:55:00
8:15 PM,62.6,19.4,19,30.32,10.0,SW,5.8,-,N/A,,Clear,230,2012-09-23 02:15:00
8:35 PM,59.0,19.4,22,30.33,9.0,SE,6.9,-,N/A,,Clear,140,2012-09-23 02:35:00
8:55 PM,59.0,21.2,23,30.33,10.0,East,10.4,-,N/A,,Clear,100,2012-09-23 02:55:00
9:15 PM,55.4,21.2,26,30.34,10.0,East,10.4,-,N/A,,Clear,90,2012-09-23 03:15:00
9:35 PM,57.2,21.2,25,30.34,10.0,ENE,6.9,-,N/A,,Clear,60,2012-09-23 03:35:00
9:55 PM,57.2,23.0,27,30.35,10.0,ENE,5.8,-,N/A,,Clear,60,2012-09-23 03:55:00
10:15 PM,57.2,23.0,27,30.35,10.0,ENE,6.9,-,N/A,,Clear,70,2012-09-23 04:15:00
10:35 PM,53.6,21.2,28,30.36,10.0,North,5.8,-,N/A,,Clear,350,2012-09-23 04:35:00
10:55 PM,53.6,21.2,28,30.36,10.0,NE,8.1,-,N/A,,Clear,40,2012-09-23 04:55:00
11:15 PM,53.6,21.2,28,30.36,10.0,NNE,3.5,-,N/A,,Clear,20,2012-09-23 05:15:00
11:35 PM,53.6,21.2,28,30.36,10.0,NNE,4.6,-,N/A,,Clear,30,2012-09-23 05:35:00
11:55 PM,51.8,21.2,30,30.36,10.0,Calm,Calm,-,N/A,,Clear,0,2012-09-23 05:55:00